{"data":{"norad_id":61622,"intl_designator":"2024-191B","name":"STARLINK-32364","alt_names":[],"object_type":"PAYLOAD","status":"ACTIVE","operator":null,"country":"US","launch_date":"2024-10-23","launch_site_code":"AFETR","launch_vehicle":null,"mission":null,"orbit_class":"UNKNOWN","rcs_meters":null,"size_class":null,"mass_kg":null,"dimensions":null,"purposes":["comms"],"wikipedia_slug":null,"has_3d_model":false,"image_url":null,"decayed_at":null,"tle_current":{"epoch":"2026-09-21T18:08:46.328064Z","epoch_age_seconds":83487,"freshness":"FRESH","line1":"1 61622U 24191B   26264.75609176  .00000472  00000+0  26666-4 0  9997","line2":"2 61622  43.0016 127.1031 0001421 275.6384  84.4306 15.27578388107525","mean_motion":15.27578388,"eccentricity":0.0001421,"inclination_deg":43.0016,"raan_deg":127.1031,"arg_perigee_deg":275.6384,"mean_anomaly_deg":84.4306,"bstar":2.6666e-5,"rev_number":10752,"period_min":94.266848190052,"perigee_km":482.07894772166,"apogee_km":484.02889818196,"semimajor_km":6861.1909229518,"source":"CELESTRAK","updated_at":"2026-09-22T09:00:49.394774Z"}}}